EW7216 Weather Reports


time (UTC)temp
C
wind
direction
speed
KPH
gust
KPH
rain 1hr
cm
rain 24hr
cm
rain mn
cm
humidity
%
barometer
mb
20260504033553 11 131 0.0 3.2 0.00 0.00 0.00 81 1023.7
20260504032523 11 154 1.6 3.2 0.00 0.00 0.00 81 1023.7
20260504031613 11 136 1.6 3.2 0.00 0.00 0.00 81 1023.8
20260504030604 12 141 0.0 1.6 0.00 0.00 0.00 80 1023.8
20260504025553 12 152 0.0 3.2 0.00 0.00 0.00 79 1023.8
20260504024603 12 150 1.6 4.8 0.00 0.00 0.00 79 1023.9
20260504023533 12 136 0.0 1.6 0.00 0.00 0.00 78 1023.8
20260504022523 12 144 1.6 3.2 0.00 0.00 0.00 78 1023.9
20260504021614 12 0.0 0.0 0.00 0.00 0.00 77 1024.0
20260504020624 12 0.0 0.0 0.00 0.00 0.00 77 1023.9
20260504015615 12 152 3.2 4.8 0.00 0.00 0.00 77 1024.0
20260504014544 12 131 0.0 1.6 0.00 0.00 0.00 75 1024.0
20260504013534 13 0.0 1.6 0.00 0.00 0.00 71 1023.9
20260504012524 12 148 1.6 4.8 0.00 0.00 0.00 74 1023.8
20260504011615 12 129 1.6 3.2 0.00 0.00 0.00 73 1023.8
20260504010605 12 133 1.6 3.2 0.00 0.00 0.00 73 1023.8
20260504005555 12 145 0.0 3.2 0.00 0.00 0.00 71 1023.8
20260504004545 11 147 0.0 3.2 0.00 0.00 0.00 78 1023.9
20260504003535 11 0.0 0.0 0.00 0.00 0.00 84 1023.9
20260504002525 11 311 1.6 1.6 0.00 0.00 0.00 86 1024.1
20260504001616 11 309 3.2 4.8 0.00 0.00 0.00 85 1024.2
20260504000606 11 118 1.6 3.2 0.00 0.00 0.00 84 1024.4
20260503235657 11 285 1.6 3.2 0.00 0.00 0.00 84 1024.3
20260503234547 11 187 1.6 3.2 0.00 0.00 0.00 82 1024.4
20260503233536 11 272 1.6 4.8 0.00 0.00 0.00 82 1024.5
20260503232526 11 302 4.8 6.4 0.00 0.00 0.00 83 1024.6
20260503231516 11 282 4.8 6.4 0.00 0.00 0.00 83 1024.8
20260503230607 11 305 6.4 9.7 0.00 0.00 0.00 84 1024.7
20260503225558 12 306 6.4 11.3 0.00 0.00 0.00 84 1024.7
20260503224548 11 304 4.8 9.7 0.00 0.00 0.00 84 1024.9
20260503223538 12 280 6.4 6.4 0.00 0.00 0.00 84 1024.9
20260503222529 12 294 6.4 11.3 0.00 0.00 0.00 83 1024.9
20260503221517 12 278 6.4 11.3 0.00 0.00 0.00 83 1025.0
20260503220609 12 303 6.4 9.7 0.00 0.00 0.00 82 1025.0
20260503215619 12 305 6.4 11.3 0.00 0.00 0.00 79 1024.7
20260503214549 12 316 9.7 14.5 0.00 0.00 0.00 84 1024.7
20260503213538 11 294 8.0 14.5 0.00 0.00 0.00 85 1024.6
20260503212549 12 290 8.0 12.9 0.00 0.00 0.00 84 1024.7
20260503211519 12 300 9.7 12.9 0.00 0.00 0.00 83 1024.9
20260503210609 12 285 8.0 12.9 0.00 0.00 0.00 82 1025.0
20260503205600 12 304 8.0 12.9 0.00 0.00 0.00 80 1024.8
20260503204550 12 288 8.0 11.3 0.00 0.00 0.00 77 1024.7
20260503203540 12 286 4.8 6.4 0.00 0.00 0.00 73 1024.6
20260503202530 12 301 4.8 9.7 0.00 0.00 0.00 75 1024.6
20260503201519 12 299 4.8 9.7 0.00 0.00 0.00 80 1024.5
20260503200630 12 300 6.4 9.7 0.00 0.00 0.00 79 1024.7
20260503195601 12 276 8.0 11.3 0.00 0.00 0.00 78 1024.5
20260503194551 12 291 6.4 11.3 0.00 0.00 0.00 76 1024.5
20260503193541 13 329 6.4 11.3 0.00 0.00 0.00 74 1024.5
20260503192531 13 304 6.4 11.3 0.00 0.00 0.00 74 1024.3
20260503191541 13 302 8.0 12.9 0.00 0.00 0.00 76 1024.2
20260503190611 13 295 9.7 14.5 0.00 0.00 0.00 77 1024.2
20260503185602 13 299 8.0 14.5 0.00 0.00 0.00 76 1024.2
20260503184552 13 264 9.7 14.5 0.00 0.00 0.00 74 1024.2
20260503183542 14 303 11.3 16.1 0.00 0.00 0.00 71 1024.0
20260503182532 15 319 11.3 17.7 0.00 0.00 0.00 69 1023.8
20260503181522 15 310 8.0 14.5 0.00 0.00 0.00 68 1023.7
20260503180613 15 289 9.7 16.1 0.00 0.00 0.00 67 1023.7
20260503175603 15 296 9.7 14.5 0.00 0.00 0.00 66 1023.5
20260503174553 16 302 8.0 12.9 0.00 0.00 0.00 65 1023.5
20260503173543 16 269 6.4 9.7 0.00 0.00 0.00 63 1023.5
20260503172532 16 292 8.0 14.5 0.00 0.00 0.00 61 1023.3
20260503171523 16 277 8.0 11.3 0.00 0.00 0.00 61 1023.2
20260503170613 17 294 6.4 11.3 0.00 0.00 0.00 61 1023.3
20260503150616 17 312 14.5 24.1 0.00 0.00 0.00 56 1024.2
20260503130518 18 289 14.5 25.7 0.00 0.00 0.00 56 1024.7
20260503110518 17 297 9.7 20.9 0.00 0.00 0.00 55 1025.1
20260503081532 15 337 6.4 12.9 0.00 0.00 0.00 61 1026.1
20260503080522 15 320 6.4 12.9 0.00 0.00 0.00 63 1026.1
20260503072542 13 318 3.2 6.4 0.00 0.00 0.00 72 1026.1
20260503071532 13 323 3.2 4.8 0.00 0.00 0.00 73 1026.2
20260503070522 13 321 4.8 9.7 0.00 0.00 0.00 76 1026.1
20260503054624 11 0.0 0.0 0.00 0.00 0.00 81 1025.7
20260503053554 11 0.0 0.0 0.00 0.00 0.00 79 1025.8
20260503052604 11 0.0 3.2 0.00 0.00 0.00 76 1025.8
20260503051533 11 324 0.0 3.2 0.00 0.00 0.00 69 1025.7
20260503050524 12 341 1.6 3.2 0.00 0.00 0.00 63 1025.7
20260503045615 12 333 8.0 11.3 0.00 0.00 0.00 60 1025.5
20260503044625 11 306 6.4 11.3 0.00 0.00 0.00 72 1025.5
20260503043555 10 335 4.8 9.7 0.00 0.00 0.00 74 1025.5
20260503042545 10 302 4.8 6.4 0.00 0.00 0.00 74 1025.8
20260503041535 10 309 4.8 4.8 0.00 0.00 0.00 73 1025.7
20260503040525 10 293 3.2 6.4 0.00 0.00 0.00 75 1025.6
20260503035515 10 323 3.2 4.8 0.00 0.00 0.00 80 1025.5
20260503034606 10 226 1.6 3.2 0.00 0.00 0.00 80 1025.4